Istanbul, Turkey

7:09 PM +03 on February 27, 2017 (GMT +0300)
Istanbul

Weather History for 17060 - November, 2013

Change the Weather History Date:

Friday, November 15, 2013

  Actual Average Record
Temperature  
Mean Temperature 58 °F -  
Max Temperature 62 °F 53 °F - ()
Min Temperature 53 °F 44 °F - ()
Degree Days  
Heating Degree Days 8    
Growing Degree Days 8 (Base 50)    
Moisture  
Dew Point 49 °F    
Average Humidity 74    
Maximum Humidity 88    
Minimum Humidity 61    
Precipitation  
Precipitation 0.00 in - - ()
Sea Level Pressure  
Sea Level Pressure 30.11 in    
Wind  
Wind Speed 14 mph ()    
Max Wind Speed 21 mph    
Max Gust Speed 32 mph    
Visibility 6.4 miles    
Events Rain    
T = Trace of Precipitation, MM = Missing Value Source: Averaged Metar Reports

Daily Weather History Graph

Daily Weather History Graph

Search for Another Location

Airport or City:

Trip Planner

Search our weather history database for the weather conditions in past years. The results will help you decide how hot, cold, wet, or windy it might be!

Date:

Astronomy

Nov. 15, 2013 Rise Set
Actual Time 6:52 AM EET 4:46 PM EET
Civil Twilight 6:22 AM EET 5:15 PM EET
Nautical Twilight 5:49 AM EET 5:48 PM EET
Astronomical Twilight 5:16 AM EET 6:21 PM EET
Moon 3:31 PM EET (11/15) 4:27 AM EET (11/15)
Length of Visible Light 10h 53m
Length of Day
9h 54m
Waxing Gibbous, 95% of the Moon is Illuminated
Nov 15
Waxing Gibbous
Nov 17
Full
Nov 25
Last Quarter
Dec 3
New
Dec 9
First Quarter

Hourly Weather History & Observations

Time (EET) Temp. Dew Point Humidity Pressure Visibility Wind Dir Wind Speed Gust Speed Precip Events Conditions
12:20 AM 57.2 °F 50.0 °F 77% 30.04 in 6.2 mi NE 16.1 mph - N/A   Mostly Cloudy
12:50 AM 57.2 °F 50.0 °F 77% 30.04 in 6.2 mi NE 11.5 mph - N/A   Mostly Cloudy
1:20 AM 57.2 °F 50.0 °F 77% 30.04 in 6.2 mi Variable 12.7 mph - N/A   Mostly Cloudy
1:50 AM 57.2 °F 50.0 °F 77% 30.04 in 6.2 mi NE 15.0 mph - N/A   Mostly Cloudy
2:00 AM 56 °F 50 °F 75% 30.05 in 12 mi NE 15.0 mph - -   Mostly Cloudy
2:20 AM 57.2 °F 50.0 °F 77% 30.04 in 6.2 mi NE 13.8 mph - N/A   Mostly Cloudy
2:50 AM 55.4 °F 50.0 °F 82% 30.04 in 6.2 mi NE 15.0 mph - N/A   Mostly Cloudy
3:20 AM 57.2 °F 50.0 °F 77% 30.04 in 6.2 mi NE 16.1 mph - N/A   Mostly Cloudy
3:50 AM 57.2 °F 50.0 °F 77% 30.01 in 6.2 mi NE 16.1 mph - N/A   Mostly Cloudy
4:20 AM 55.4 °F 50.0 °F 82% 30.01 in 6.2 mi NE 17.3 mph - N/A   Mostly Cloudy
4:50 AM 55.4 °F 50.0 °F 82% 30.04 in 6.2 mi NE 16.1 mph - N/A   Mostly Cloudy
5:00 AM 56 °F 50 °F 73% 30.05 in 6 mi NE 16.1 mph - -   Mostly Cloudy
5:20 AM 55.4 °F 50.0 °F 82% 30.04 in 6.2 mi NE 15.0 mph - N/A   Mostly Cloudy
5:50 AM 55.4 °F 50.0 °F 82% 30.04 in 6.2 mi NE 13.8 mph - N/A   Mostly Cloudy
6:07 AM 55.4 °F 50.0 °F 82% 30.06 in 4.3 mi NE 16.1 mph - N/A   Light Drizzle
6:20 AM 53.6 °F 50.0 °F 88% 30.06 in 4.3 mi NE 15.0 mph - N/A   Light Drizzle
6:50 AM 53.6 °F 48.2 °F 82% 30.06 in 4.3 mi NE 16.1 mph - N/A   Light Drizzle
7:20 AM 55.4 °F 50.0 °F 82% 30.06 in 6.2 mi NNE 11.5 mph - N/A   Mostly Cloudy
7:50 AM 55.4 °F 48.2 °F 77% 30.06 in 6.2 mi NNE 15.0 mph - N/A   Mostly Cloudy
8:00 AM 55 °F 49 °F 74% 30.09 in 6 mi NNE 15.0 mph - - Rain Light Drizzle
8:20 AM 57.2 °F 50.0 °F 77% 30.09 in 6.2 mi NNE 13.8 mph - N/A   Mostly Cloudy
8:50 AM 57.2 °F 50.0 °F 77% 30.09 in 6.2 mi NNE 13.8 mph - N/A   Mostly Cloudy
9:20 AM 59.0 °F 50.0 °F 72% 30.09 in 6.2 mi NNE 12.7 mph - N/A   Mostly Cloudy
9:50 AM 57.2 °F 50.0 °F 77% 30.09 in 6.2 mi NNE 13.8 mph - N/A   Mostly Cloudy
10:20 AM 59.0 °F 50.0 °F 72% 30.09 in 6.2 mi NNE 12.7 mph - N/A   Mostly Cloudy
10:50 AM 59.0 °F 50.0 °F 72% 30.09 in 6.2 mi NE 12.7 mph - N/A   Mostly Cloudy
11:00 AM 59 °F 51 °F 67% 30.11 in 12 mi NE 12.7 mph - -   Mostly Cloudy
11:20 AM 60.8 °F 48.2 °F 63% 30.09 in 6.2 mi NE 15.0 mph - N/A   Mostly Cloudy
11:50 AM 59.0 °F 48.2 °F 67% 30.09 in 6.2 mi NE 16.1 mph - N/A   Mostly Cloudy
12:20 PM 60.8 °F 48.2 °F 63% 30.09 in 6.2 mi NE 16.1 mph - N/A   Mostly Cloudy
12:50 PM 60.8 °F 48.2 °F 63% 30.09 in 6.2 mi NE 18.4 mph - N/A   Mostly Cloudy
1:20 PM 60.8 °F 51.8 °F 72% 30.09 in 6.2 mi NNE 19.6 mph - N/A   Mostly Cloudy
1:50 PM 59.0 °F 51.8 °F 77% 30.09 in 6.2 mi NE 13.8 mph 25.3 mph N/A   Mostly Cloudy
2:00 PM 59 °F 51 °F 66% 30.12 in 12 mi NE 13.8 mph - -   Mostly Cloudy
2:18 PM 60.8 °F 50.0 °F 68% 30.09 in 6.2 mi NE 18.4 mph - N/A Rain Light Rain Showers
2:20 PM 59.0 °F 50.0 °F 72% 30.09 in 6.2 mi NE 18.4 mph - N/A Rain Light Rain Showers
2:50 PM 59.0 °F 50.0 °F 72% 30.12 in 6.2 mi NE 18.4 mph 29.9 mph N/A   Mostly Cloudy
3:20 PM 59.0 °F 48.2 °F 67% 30.12 in 6.2 mi NE 20.7 mph 32.2 mph N/A   Mostly Cloudy
3:50 PM 59.0 °F 50.0 °F 72% 30.12 in 6.2 mi NE 18.4 mph - N/A   Mostly Cloudy
4:20 PM 57.2 °F 50.0 °F 77% 30.12 in 6.2 mi NE 17.3 mph - N/A Rain Light Rain Showers
4:50 PM 57.2 °F 50.0 °F 77% 30.15 in 6.2 mi NE 18.4 mph - N/A   Mostly Cloudy
5:00 PM 57 °F 50 °F 70% 30.15 in 6 mi NE 18.4 mph - - Rain Light Rain Showers
5:20 PM 57.2 °F 50.0 °F 77% 30.15 in 6.2 mi NE 19.6 mph 31.1 mph N/A   Mostly Cloudy
5:50 PM 55.4 °F 50.0 °F 82% 30.15 in 6.2 mi NE 16.1 mph - N/A   Mostly Cloudy
6:20 PM 55.4 °F 50.0 °F 82% 30.18 in 6.2 mi NE 18.4 mph - N/A   Mostly Cloudy
6:50 PM 57.2 °F 48.2 °F 72% 30.18 in 6.2 mi NE 18.4 mph - N/A   Mostly Cloudy
7:20 PM 57.2 °F 48.2 °F 72% 30.18 in 6.2 mi NE 17.3 mph - N/A   Mostly Cloudy
7:50 PM 57.2 °F 46.4 °F 67% 30.18 in 6.2 mi NE 17.3 mph - N/A   Mostly Cloudy
8:00 PM 57 °F 47 °F 61% 30.20 in 6 mi NE 17.3 mph - -   Partly Cloudy
8:20 PM 57.2 °F 46.4 °F 67% 30.21 in 6.2 mi NE 16.1 mph - N/A   Mostly Cloudy
8:50 PM 55.4 °F 46.4 °F 72% 30.21 in 6.2 mi NE 17.3 mph - N/A   Mostly Cloudy
9:20 PM 59.0 °F 46.4 °F 63% 30.21 in 6.2 mi Variable 15.0 mph - N/A   Mostly Cloudy
9:50 PM 59.0 °F 46.4 °F 63% 30.21 in 6.2 mi NE 16.1 mph - N/A   Mostly Cloudy
10:20 PM 57.2 °F 44.6 °F 63% 30.21 in 6.2 mi Variable 15.0 mph - N/A   Mostly Cloudy
10:50 PM 55.4 °F 46.4 °F 72% 30.24 in 6.2 mi NE 12.7 mph - N/A   Mostly Cloudy
11:00 PM 55 °F 46 °F 64% 30.24 in 6 mi NE 12.7 mph - -   Mostly Cloudy
11:20 PM 55.4 °F 46.4 °F 72% 30.24 in 6.2 mi NE 15.0 mph - N/A   Mostly Cloudy
11:50 PM 55.4 °F 46.4 °F 72% 30.24 in 6.2 mi NE 13.8 mph - N/A   Mostly Cloudy